Wind_Speed
19 20 20 20 21 21 22 23 24 23 24 24 24 25 25 25 25 25 25 26 27 28 28 28 29 30 32 33 34 35 35 35 36 37 38 39 39 40 40 41 41 40 41 41
19 20 20 20 21 21 22 23 23 23 22 22 24 25 25 24 24 24 24 24 25 26 26 27 27 28 29 31 32 32 32 33 33 34 35 36 37 39 39 38 38 38 39 39
20 21 21 21 21 22 23 22 23 23 22 22 23 23 24 24 24 24 24 25 25 24 24 26 26 27 29 29 30 30 30 31 32 33 35 35 36 37 37 37 37 38 38 39
21 22 22 22 23 23 23 23 24 24 23 24 24 24 25 25 24 24 25 25 25 24 23 24 25 25 26 27 27 29 29 29 30 31 32 33 34 35 35 34 35 36 37 37
21 22 22 22 23 24 24 24 24 24 25 25 25 24 24 24 24 23 24 24 24 24 24 24 24 24 24 24 24 25 26 27 28 29 30 31 32 32 33 34 35 36 37 37
23 23 23 23 24 24 25 24 24 25 26 25 25 25 24 25 24 23 23 24 24 24 24 24 24 24 24 25 25 26 26 27 27 28 27 28 29 30 31 31 32 33 35 35
24 24 25 25 25 25 25 25 25 25 26 26 26 26 25 26 25 25 24 24 25 25 24 24 24 24 24 24 25 25 25 25 26 26 27 27 28 28 29 31 32 33 33 34
24 24 25 25 25 26 26 26 26 26 27 27 26 26 26 26 27 26 25 25 25 25 25 24 24 25 25 25 25 25 25 24 24 25 25 25 26 27 29 30 31 32 32 32
25 25 26 26 26 26 27 27 27 27 27 27 26 26 26 27 27 27 26 26 26 25 25 25 25 25 25 25 24 24 23 23 24 25 25 25 26 26 27 28 28 29 29 30
26 26 26 26 27 27 27 27 27 27 26 26 26 26 27 27 27 27 27 27 26 25 24 24 24 24 25 25 25 24 24 24 24 24 24 24 25 25 26 26 27 27 28 28
26 26 26 26 26 26 26 27 26 26 26 27 26 26 26 26 26 26 26 26 26 25 24 24 24 25 25 24 24 24 24 23 23 23 24 24 25 26 26 26 26 26 26 26
26 26 26 26 25 26 26 26 26 26 26 27 26 26 26 26 26 26 26 25 25 24 24 24 24 24 24 24 24 24 24 23 24 25 25 25 26 26 26 26 26 25 25 25
25 25 25 25 25 25 25 25 26 26 26 26 26 26 26 26 26 25 25 24 23 23 24 24 24 24 24 24 24 25 24 25 25 26 26 26 26 26 26 25 25 24 24 23
25 25 25 24 24 24 24 24 25 25 25 26 26 25 25 25 25 25 24 23 23 23 23 23 23 24 25 25 25 25 25 25 26 26 26 25 25 24 24 23 22 22 21 21
24 24 24 24 24 24 25 25 25 25 25 25 26 26 25 25 24 23 22 22 22 22 23 23 24 24 24 24 25 25 25 25 25 24 24 24 23 22 22 21 20 20 20 20
23 23 24 24 24 24 24 24 24 24 24 25 25 25 25 24 23 22 21 21 21 21 22 22 23 22 22 22 23 23 23 23 23 22 22 22 21 21 20 19 19 19 20 20
23 23 23 23 24 24 24 24 24 24 24 24 24 24 23 22 21 20 20 20 20 21 21 21 21 21 21 21 21 21 21 21 20 20 20 19 19 18 18 18 18 18 18 18
23 23 22 23 24 24 24 24 23 23 23 22 22 22 21 20 19 19 20 20 20 21 20 20 20 20 19 19 19 19 19 19 19 18 17 16 15 15 15 15 16 16 16 16
24 23 23 23 24 24 24 23 22 21 21 21 21 21 20 20 19 19 20 20 20 19 19 19 19 19 19 18 18 18 17 17 17 15 15 14 13 13 13 13 13 13 13 13
24 24 23 23 23 23 23 22 21 20 20 20 20 20 19 19 19 19 19 19 18 18 17 17 17 17 17 18 18 17 17 16 15 14 13 13 12 12 12 11 11 11 12 12
24 23 23 23 23 22 22 21 20 20 19 19 19 19 19 19 18 18 17 17 16 16 16 16 16 16 16 17 16 16 15 14 13 12 12 12 11 11 11 11 11 11 12 12
23 22 22 22 22 21 21 20 20 19 18 18 18 18 18 17 16 15 15 15 15 15 15 15 15 15 15 15 14 14 13 12 11 11 11 10 10 10 10 11 10 10 10 11
22 22 21 21 20 20 20 19 18 18 18 18 18 17 17 16 15 14 14 14 14 14 15 14 14 14 14 13 13 13 12 11 11 11 10 10 9 9 9 9 9 9 9 10
22 21 21 20 19 19 18 17 17 17 17 17 16 16 15 15 14 13 13 13 13 14 14 14 13 13 13 13 12 12 11 10 10 9 9 9 9 9 8 8 8 8 8 9
21 20 19 19 18 17 17 17 17 17 16 16 15 15 14 13 13 12 13 13 13 14 13 13 13 12 12 12 11 11 10 10 9 8 8 8 8 8 8 7 7 7 8 8
20 19 18 18 17 17 17 17 17 16 16 16 15 14 13 13 12 13 13 13 13 14 13 13 13 12 12 12 11 10 9 9 9 8 8 7 7 7 6 7 7 7 8 8
19 19 18 17 17 17 17 17 17 16 16 15 15 14 14 13 13 13 13 13 13 13 13 13 13 12 12 12 11 10 9 9 8 7 7 7 6 6 5 6 6 7 7 8
Wind_Direction
289 289 289 291 292 291 291 292 293 293 291 291 288 287 287 287 287 290 288 286 285 283 282 280 278 275 271 269 268 268 266 263 260 258 257 258 259 261 261 261 260 261 261 259
288 289 290 291 292 292 292 292 292 292 291 290 289 288 288 290 291 293 289 288 288 285 282 280 279 277 275 272 271 268 264 263 261 258 258 259 260 260 259 259 260 260 260 259
288 288 289 292 293 292 292 292 293 293 294 292 291 290 290 290 291 293 292 289 291 290 286 284 281 278 276 273 270 268 267 266 263 261 259 260 261 260 258 259 260 261 261 260
289 289 290 293 293 292 293 292 292 293 295 294 293 292 293 292 292 292 293 292 288 289 288 286 285 283 279 275 271 269 269 269 266 264 262 262 262 259 258 258 260 261 261 262
290 290 292 293 294 294 294 294 293 293 294 296 295 293 293 293 293 293 296 295 293 292 291 289 287 285 282 278 277 275 273 272 268 267 264 263 262 260 259 260 260 261 262 262
292 291 293 295 294 297 296 295 293 294 295 294 293 292 292 292 294 294 295 295 294 293 292 292 289 286 283 282 281 279 277 274 271 269 267 265 263 262 262 263 263 263 263 263
293 293 294 296 296 297 298 297 295 295 296 295 292 291 291 291 293 293 293 293 294 293 291 291 289 287 285 284 282 280 278 275 273 270 269 269 269 266 264 264 265 264 264 263
293 294 297 297 297 297 298 297 295 294 295 295 293 292 292 291 291 292 291 291 293 292 290 288 287 286 286 286 284 283 280 277 274 272 273 274 271 269 267 267 267 266 264 263
294 295 296 297 296 296 297 297 296 293 293 292 291 291 291 289 288 289 289 290 291 291 289 287 286 287 287 287 286 284 282 278 277 278 278 277 275 273 271 271 271 269 267 266
293 295 295 295 295 295 295 296 296 296 294 292 290 289 290 289 288 288 289 290 290 289 288 287 287 287 287 286 285 284 285 283 282 281 280 278 276 275 275 274 273 271 268 267
294 295 294 294 294 295 294 295 296 296 295 294 293 292 290 290 290 290 289 289 289 288 287 287 287 287 287 286 286 286 287 285 283 283 284 283 281 280 279 276 274 271 268 267
295 295 296 296 294 293 293 294 295 295 296 294 293 293 292 291 290 290 290 290 289 287 287 286 286 287 287 288 288 288 287 285 284 284 283 283 282 281 280 277 273 269 266 266
294 295 297 298 296 295 293 293 294 295 295 296 295 294 293 291 289 289 290 288 287 288 288 287 287 287 287 288 289 289 288 286 286 285 284 283 282 282 279 275 270 266 263 263
293 294 295 296 296 297 296 295 294 295 295 296 297 296 295 293 290 289 288 287 287 288 287 287 287 288 289 289 289 288 287 287 287 287 285 283 282 281 277 273 268 264 262 262
294 295 296 296 296 298 298 296 295 295 296 297 298 298 296 295 293 290 288 288 287 287 288 288 289 289 289 290 289 289 288 287 287 287 284 283 281 278 275 270 265 262 261 260
293 294 296 298 299 299 299 298 297 296 296 297 297 298 297 296 294 292 290 289 289 289 290 291 291 292 292 293 294 292 290 289 288 287 285 283 281 278 274 269 265 261 260 259
294 295 296 297 299 300 300 299 298 297 297 298 298 299 298 295 293 291 291 290 290 291 292 293 294 296 296 297 297 296 293 292 291 288 286 283 280 277 273 269 266 262 259 258
294 295 296 298 300 302 304 303 301 300 300 301 301 301 300 296 293 293 293 293 292 292 292 294 296 297 298 298 298 299 297 294 290 287 285 282 280 277 273 270 265 261 258 257
293 294 296 298 301 303 305 305 303 301 301 302 303 303 300 296 294 294 295 295 295 293 292 295 297 298 298 299 299 300 298 295 291 284 280 280 280 279 276 271 267 260 255 253
293 293 295 297 300 302 303 303 302 301 301 302 303 304 302 299 296 296 297 297 297 294 293 295 296 297 298 299 299 299 299 295 290 283 279 277 278 277 274 272 268 260 253 248
293 293 293 295 298 300 301 301 300 299 299 301 302 304 304 302 299 297 298 298 297 295 296 298 297 297 299 300 300 300 300 296 289 284 281 279 276 273 273 274 268 263 253 246
293 292 293 295 296 297 299 299 298 297 298 300 301 303 304 303 299 297 297 298 299 298 297 298 298 298 301 303 303 303 301 297 291 286 284 282 277 274 273 272 267 261 251 242
292 292 293 294 294 295 297 298 297 296 297 299 300 302 304 303 299 296 297 298 300 300 300 300 298 298 300 301 302 302 301 299 294 289 285 282 280 276 273 268 261 254 244 238
292 291 291 293 293 294 296 297 297 297 297 298 299 301 303 301 298 295 296 298 300 302 302 300 299 298 298 298 298 299 298 298 297 291 284 281 280 278 272 265 256 245 235 232
291 290 290 291 292 293 295 296 297 299 299 298 297 299 302 300 298 296 297 299 301 303 303 302 300 298 296 295 296 297 296 294 293 290 285 281 279 275 270 264 255 243 232 229
288 288 288 290 291 292 294 295 297 300 300 298 296 295 296 297 296 295 296 298 301 303 303 302 300 297 295 294 293 291 288 287 288 286 282 280 278 272 265 259 250 241 235 234
286 287 288 290 290 290 292 293 295 298 299 298 294 292 292 294 295 293 294 296 299 301 301 301 299 296 294 292 289 285 282 282 282 277 274 274 270 264 261 257 248 240 237 235
Height
5624 5622 5621 5620 5618 5616 5613 5611 5609 5608 5605 5604 5601 5598 5596 5593 5590 5588 5585 5582 5580 5577 5575 5573 5572 5571 5570 5569 5569 5568 5567 5568 5568 5570 5572 5573 5574 5576 5577 5578 5579 5580 5581 5582
5619 5617 5615 5614 5612 5610 5608 5605 5602 5600 5599 5597 5593 5591 5589 5586 5583 5581 5578 5575 5572 5569 5567 5565 5564 5563 5562 5561 5560 5559 5559 5559 5559 5560 5562 5563 5564 5565 5566 5567 5568 5570 5571 5572
5613 5611 5609 5608 5607 5604 5601 5599 5596 5594 5593 5589 5587 5584 5582 5579 5577 5574 5571 5568 5565 5562 5560 5558 5556 5555 5554 5553 5552 5551 5551 5551 5551 5552 5553 5554 5554 5555 5556 5558 5559 5560 5561 5562
5606 5605 5603 5604 5599 5597 5595 5592 5590 5587 5585 5582 5580 5577 5574 5572 5569 5566 5564 5561 5558 5555 5553 5551 5549 5547 5545 5544 5544 5544 5543 5543 5543 5543 5543 5544 5545 5545 5547 5548 5549 5550 5551 5552
5600 5597 5596 5596 5593 5590 5587 5586 5583 5580 5578 5575 5572 5570 5568 5565 5562 5559 5557 5554 5551 5548 5546 5544 5542 5540 5538 5537 5536 5536 5535 5534 5534 5534 5534 5535 5535 5536 5537 5539 5540 5540 5541 5541
5593 5590 5589 5590 5586 5582 5581 5579 5576 5573 5570 5568 5565 5563 5562 5558 5555 5552 5549 5546 5544 5542 5540 5537 5535 5533 5532 5531 5530 5528 5527 5526 5526 5526 5526 5526 5527 5527 5528 5529 5529 5530 5530 5531
5586 5583 5582 5582 5578 5576 5575 5572 5569 5565 5562 5560 5557 5555 5553 5550 5547 5545 5542 5540 5537 5535 5533 5531 5529 5527 5526 5524 5523 5521 5520 5519 5518 5518 5518 5518 5518 5519 5519 5520 5520 5521 5521 5521
5580 5577 5578 5574 5571 5569 5567 5564 5561 5558 5555 5552 5550 5547 5544 5542 5540 5538 5535 5533 5530 5528 5526 5524 5522 5521 5519 5518 5515 5514 5512 5511 5511 5511 5510 5510 5510 5510 5510 5510 5510 5511 5511 5512
5574 5573 5570 5566 5563 5561 5559 5556 5553 5550 5548 5545 5542 5540 5538 5535 5533 5531 5528 5525 5523 5521 5519 5517 5515 5514 5512 5511 5509 5507 5506 5505 5504 5504 5503 5502 5502 5502 5502 5501 5501 5501 5501 5501
5567 5565 5562 5559 5556 5554 5551 5548 5545 5543 5540 5537 5535 5533 5530 5528 5525 5523 5520 5518 5516 5514 5512 5510 5508 5507 5505 5503 5502 5500 5499 5498 5497 5496 5495 5494 5494 5494 5493 5493 5492 5492 5492 5492
5559 5558 5555 5553 5549 5547 5544 5541 5538 5535 5533 5530 5527 5525 5523 5520 5518 5515 5513 5511 5508 5507 5505 5503 5502 5500 5498 5497 5495 5493 5492 5491 5490 5489 5488 5487 5486 5485 5484 5483 5483 5483 5483 5483
5552 5550 5547 5545 5542 5539 5536 5533 5531 5528 5525 5523 5520 5518 5515 5513 5511 5508 5506 5503 5501 5500 5498 5497 5495 5494 5492 5490 5488 5486 5485 5484 5483 5482 5480 5479 5478 5477 5475 5475 5474 5474 5474 5474
5544 5542 5539 5537 5534 5531 5528 5526 5524 5521 5518 5515 5513 5510 5508 5505 5503 5501 5499 5497 5495 5493 5491 5490 5488 5487 5485 5483 5481 5479 5478 5476 5475 5473 5472 5470 5469 5468 5466 5466 5465 5465 5465 5466
5536 5534 5532 5530 5527 5524 5521 5519 5516 5514 5511 5508 5505 5503 5500 5498 5496 5494 5492 5490 5488 5487 5485 5483 5482 5480 5478 5476 5474 5472 5470 5468 5466 5464 5463 5461 5460 5458 5457 5457 5457 5457 5458 5458
5530 5528 5526 5523 5520 5517 5514 5512 5510 5507 5504 5502 5499 5496 5493 5491 5489 5487 5485 5484 5482 5480 5479 5477 5475 5473 5471 5469 5466 5464 5462 5460 5458 5456 5454 5453 5451 5450 5450 5450 5450 5450 5451 5451
5523 5521 5518 5516 5513 5510 5507 5505 5502 5500 5497 5495 5492 5489 5486 5484 5482 5480 5479 5477 5476 5474 5472 5470 5468 5466 5464 5461 5459 5457 5454 5452 5450 5448 5447 5445 5444 5443 5443 5443 5443 5443 5444 5444
5516 5514 5511 5509 5506 5503 5500 5498 5495 5492 5490 5487 5485 5482 5480 5478 5476 5474 5473 5471 5469 5468 5466 5464 5462 5460 5457 5455 5452 5450 5447 5445 5443 5441 5440 5439 5438 5437 5436 5436 5436 5437 5437 5438
5508 5506 5504 5501 5499 5496 5493 5490 5487 5485 5483 5480 5478 5475 5473 5471 5470 5468 5467 5465 5463 5462 5460 5458 5456 5454 5451 5449 5446 5444 5441 5439 5437 5436 5434 5433 5432 5431 5431 5431 5431 5431 5431 5432
5501 5499 5497 5494 5491 5489 5486 5483 5480 5478 5476 5474 5471 5469 5467 5465 5463 5462 5460 5459 5457 5455 5454 5452 5450 5448 5445 5443 5441 5439 5436 5434 5432 5430 5429 5428 5428 5427 5426 5426 5426 5426 5426 5427
5493 5491 5489 5487 5484 5482 5479 5476 5474 5472 5470 5467 5465 5463 5461 5459 5458 5456 5454 5453 5451 5449 5447 5446 5444 5442 5440 5438 5436 5433 5431 5429 5427 5426 5425 5424 5423 5422 5422 5422 5421 5422 5422 5423
5486 5484 5482 5479 5477 5475 5472 5470 5468 5466 5464 5462 5460 5457 5455 5454 5452 5450 5449 5447 5446 5444 5442 5440 5439 5437 5435 5433 5430 5428 5426 5424 5423 5422 5421 5420 5419 5419 5418 5418 5418 5418 5418 5419
5478 5476 5474 5472 5470 5468 5466 5463 5461 5459 5458 5456 5454 5452 5450 5448 5446 5445 5443 5442 5440 5439 5437 5435 5433 5432 5430 5428 5426 5424 5422 5420 5419 5418 5417 5416 5416 5415 5415 5414 5414 5415 5415 5415
5471 5469 5467 5465 5463 5461 5459 5457 5455 5454 5452 5450 5448 5446 5444 5443 5441 5440 5438 5437 5436 5434 5432 5430 5428 5427 5425 5423 5422 5420 5418 5417 5416 5414 5413 5413 5412 5412 5412 5411 5411 5411 5412 5412
5464 5462 5461 5459 5457 5455 5453 5451 5450 5448 5446 5445 5443 5441 5439 5438 5436 5435 5433 5432 5431 5429 5427 5425 5424 5422 5421 5419 5418 5416 5415 5414 5412 5411 5410 5410 5409 5409 5408 5408 5408 5409 5409 5410
5458 5456 5454 5453 5451 5449 5448 5446 5444 5443 5441 5439 5438 5436 5434 5433 5432 5430 5429 5428 5426 5424 5423 5421 5420 5418 5417 5416 5414 5413 5412 5411 5409 5408 5407 5407 5406 5406 5405 5405 5406 5406 5406 5407
5451 5449 5448 5447 5445 5444 5442 5441 5439 5438 5436 5434 5433 5431 5430 5429 5427 5426 5424 5423 5422 5420 5419 5417 5416 5414 5413 5412 5411 5409 5408 5407 5406 5406 5405 5404 5403 5403 5403 5403 5403 5403 5404 5405
5444 5443 5442 5440 5439 5438 5437 5436 5434 5433 5431 5429 5428 5427 5425 5424 5423 5421 5420 5419 5417 5416 5414 5413 5412 5410 5409 5408 5407 5406 5405 5404 5403 5403 5402 5402 5401 5401 5401 5401 5401 5401 5401 5402